This is the latest recevied weather packets stored in our database for station/object HK4DAP-11. If no packets are shown the sender has not sent any weather packets the latest 10 day(s).
| Time | Temp. | Humidity | Pressure | Rain* | Wind** | Luminosity | Snow |
|---|---|---|---|---|---|---|---|
| 1787612961 | 25.56° C | 56% | 848.2 hPa | - | - | - | - |
| 1787612661 | 25.56° C | 55% | 848.1 hPa | - | - | - | - |
| 1787612442 | 25.56° C | 55% | 848 hPa | - | - | - | - |
| 1787612072 | 25.56° C | 54% | 847.9 hPa | - | - | - | - |
| 1787611766 | 25.56° C | 53% | 847.8 hPa | - | - | - | - |
| 1787611460 | 25.56° C | 52% | 847.8 hPa | - | - | - | - |
| 1787611160 | 26.11° C | 50% | 847.9 hPa | - | - | - | - |
| 1787610860 | 26.67° C | 46% | 847.8 hPa | - | - | - | - |
| 1787610559 | 26.11° C | 47% | 847.7 hPa | - | - | - | - |
| 1787610260 | 26.11° C | 54% | 847.7 hPa | - | - | - | - |
| 1787609959 | 26.11° C | 55% | 847.6 hPa | - | - | - | - |
| 1787609659 | 26.11° C | 55% | 847.5 hPa | - | - | - | - |
| 1787609359 | 25.56° C | 55% | 847.4 hPa | - | - | - | - |
| 1787609059 | 26.11° C | 55% | 847.5 hPa | - | - | - | - |
| 1787608759 | 26.11° C | 55% | 847.5 hPa | - | - | - | - |
| 1787608458 | 26.11° C | 55% | 847.5 hPa | - | - | - | - |
| 1787608158 | 26.11° C | 55% | 847.4 hPa | - | - | - | - |
| 1787607859 | 26.11° C | 55% | 847.2 hPa | - | - | - | - |
| 1787607558 | 26.11° C | 55% | 847.1 hPa | - | - | - | - |
| 1787607378 | 25.56° C | 55% | 846.8 hPa | - | - | - | - |
| 1787606965 | 26.11° C | 54% | 847.2 hPa | - | - | - | - |
| 1787606658 | 26.11° C | 54% | 847.2 hPa | - | - | - | - |
| 1787606358 | 26.67° C | 53% | 847.2 hPa | - | - | - | - |
| 1787606057 | 26.11° C | 53% | 847.2 hPa | - | - | - | - |
| 1787605757 | 26.11° C | 54% | 847.1 hPa | - | - | - | - |
* Rain since midnight (hover to see other rain measurements)
** Current wind speed in m/s (hover to see current wind gust speed)